Погода в Амбоне

Индонезия     3°40′00″S   128°09′19″E
темп.,
°C
ветер,
м/с
пор.,
м/с
влажн.,
%
обл.,
%
осадки,
мм/ч
давл.,
гПа
погр.,
м
2 марта, вт
вт200:00+27зсз357487 0.3 1011518
03:00+27сз597593 1.0 1009742
06:00+26сз81181100 0.8 1010832
09:00+26зсз61082100 4.8 1012723
12:00+28ссз5774100 0.1 1011744
15:00+28ссз7975100 0.1 1009988
18:00+26ссз71175100 0.0 1009726
21:00+26ссз5877100 0.0 1010642
3 марта, ср
ср300:00+27ссз3475100 0.0 1011473
03:00+27ссз5878100 0.0 1009529
06:00+27ссз4776100 0.0 1010568
09:00+28сз3571100 0.1 1011640
12:00+29зсз686998 2.1 10111217
15:00+30сз576599 2.4 10081119
18:00+29ссз4669100 0.0 1008648
21:00+27сз3375100 0.0 1010302
4 марта, чт
чт400:00+27сз2478100 2.2 1011270
03:00+27сз477998 2.2 1009631
06:00+27сз257795 0.0 1010602
09:00+28сз257498 0.4 1011631
12:00+30сз346368 0.4 1010937
15:00+31з456261 0.6 1009870
18:00+29сз4567100 0.3 1008436
21:00+27сз3573100 0.5 1010318
5 марта, пт
пт500:00+27сз347441 0.0 1011292
03:00+27сз347271 0.0 1009307
06:00+27сз117655 0.9 1009212
09:00+28зсз357129 3.6 1011627
12:00+30з45631 0.3 1010975
15:00+30юз45655 0.4 1008787
18:00+29з337217 1.9 1008437
21:00+27сз227553 2.4 1010242
6 марта, сб
сб600:00+27ссз337778 0.0 1010209
03:00+26ссз347988 0.1 1009253
06:00+26ссз347790 0.0 1009214
09:00+27ссз247454 0.4 1011383
12:00+29зсз246761 3.1 1010610
15:00+30зсз566755 7.1 1008918
18:00+27сз6107898 3.1 1008631
21:00+27ссз598196 3.9 1010527